This is the latest recevied weather packets stored in our database for station/object DG6YGE-6. If no packets are shown the sender has not sent any weather packets the latest 10 day(s).
| Time | Temp. | Humidity | Pressure | Rain* | Wind** | Luminosity | Snow |
|---|---|---|---|---|---|---|---|
| 1788093552 | 19.44° C | 81% | 1010.1 hPa | 0 mm | - | 160 W/m² | - |
| 1788092952 | 19.44° C | 81% | 1010 hPa | 0 mm | - | 107 W/m² | - |
| 1788092352 | 19.44° C | 81% | 1009.9 hPa | 0 mm | - | 175 W/m² | - |
| 1788091752 | 19.44° C | 82% | 1010 hPa | 0 mm | - | 244 W/m² | - |
| 1788091152 | 18.89° C | 83% | 1010 hPa | 0 mm | - | 142 W/m² | - |
| 1788090552 | 18.89° C | 82% | 1010 hPa | 0 mm | - | 120 W/m² | - |
| 1788089952 | 18.89° C | 81% | 1009.9 hPa | 0 mm | - | 93 W/m² | - |
| 1788089352 | 19.44° C | 81% | 1009.7 hPa | 0 mm | - | 147 W/m² | - |
| 1788088752 | 19.44° C | 80% | 1009.5 hPa | 0 mm | - | 320 W/m² | - |
| 1788088152 | 20° C | 79% | 1009.3 hPa | 0 mm | - | 141 W/m² | - |
| 1788087552 | 20° C | 78% | 1009.3 hPa | 0 mm | - | 415 W/m² | - |
| 1788086952 | 19.44° C | 80% | 1009.4 hPa | 0 mm | - | 190 W/m² | - |
| 1788086352 | 19.44° C | 80% | 1009.4 hPa | 0 mm | - | 258 W/m² | - |
| 1788085752 | 19.44° C | 81% | 1009.4 hPa | 0 mm | - | 362 W/m² | - |
| 1788085152 | 19.44° C | 82% | 1009.4 hPa | 0 mm | - | 345 W/m² | - |
| 1788084552 | 18.89° C | 82% | 1009.3 hPa | 0 mm | - | 271 W/m² | - |
| 1788083952 | 18.89° C | 82% | 1009.3 hPa | 0 mm | - | 149 W/m² | - |
| 1788083352 | 18.33° C | 82% | 1009.3 hPa | 0 mm | - | 102 W/m² | - |
| 1788082752 | 18.33° C | 83% | 1009.2 hPa | 0 mm | - | 101 W/m² | - |
| 1788082152 | 18.33° C | 82% | 1009.1 hPa | 0 mm | - | 110 W/m² | - |
| 1788081552 | 18.33° C | 82% | 1009 hPa | 0 mm | - | 136 W/m² | - |
| 1788080952 | 18.33° C | 82% | 1008.9 hPa | 0 mm | - | 139 W/m² | - |
| 1788080352 | 18.33° C | 83% | 1008.7 hPa | 0 mm | - | 96 W/m² | - |
| 1788079752 | 18.33° C | 83% | 1008.6 hPa | 0 mm | - | 101 W/m² | - |
| 1788079152 | 18.33° C | 83% | 1008.5 hPa | 0 mm | - | 97 W/m² | - |
* Rain latest hour (hover to see other rain measurements)
** Current wind speed in m/s (hover to see current wind gust speed)